Location: Bonneuil
(46.1010°N, 2.9693°E)
Time: 15:49:26
(UTC+00:00)

Cosmos 2058 - Pass Details

Date: 09 April 2020
Orbit: 563 x 582 km, 82.5° (Epoch: 27 May)

Event Time Altitude Azimuth Distance (km) Brightness Sun altitude
Rises 20:50:28 0° 347° (NNW) 2,775 7.2 -22.8°
Reaches altitude 10° 20:52:40 10° 343° (NNW) 1,875 6.3 -23.1°
Maximum altitude 20:56:44 58° 265° (W) 666 3.3 -23.6°
Enters shadow 20:57:16 53° 230° (SW) 707 3.3 -23.7°
